Regional Weather Roundup
Issued by NWS

Home | Current Version | Previous Version | Graphics & Text | Print | Product List | Glossary On
Versions: 1 2 3 4 5 6 7 8 9 10 11 12 13 14 15 16 17 18 19 20 21 22 23 24 25 26 27 28 29 30 31 32 33 34 35 36 37 38 39 40 41 42 43 44 45 46 47 48 49 50
989
ASUS44 KLIX 210310
RWRLA
LOUISIANA WEATHER ROUNDUP
NATIONAL WEATHER SERVICE NEW ORLEANS LA
1000 PM CDT SAT SEP 20 2014

NOTE: "FAIR" INDICATES FEW OR NO CLOUDS BELOW 12,000 FEET WITH NO
      SIGNIFICANT WEATHER AND/OR OBSTRUCTIONS TO VISIBILITY.
      SKY/WX - SKY CONDITION AND SIGNIFICANT WEATHER.
      TMP - AIR TEMPERATURE.    DP   - DEWPOINT TEMPERATURE.
      RH  - RELATIVE HUMIDITY.  PRES - PRESSURE.
      HX  - HEAT INDEX.         WCI  - WIND CHILL INDEX.

*  THESE STATIONS ARE NOT NWS OR FAA STATIONS AND ARE NOT UNDER
   NWS QUALITY CONTROL.

LAZ040-048-061>063-065-066-069-210400-
SOUTHEAST LOUISIANA

CITY           SKY/WX    TMP DP  RH WIND       PRES   REMARKS
N.O. AUDUBON     N/A     81  73  77 MISG        N/A
N.O. INTL ARPT PTCLDY    80  71  74 SE7       29.99R
N.O. LAKEFRONT CLEAR     80  71  74 SE8       29.99R
N.O. DOWNTOWN* FAIR      81  70  69 SE3       29.99R
SLIDELL        CLEAR     74  70  87 CALM      29.99R
BATON ROUGE    CLEAR     75  70  84 CALM      29.99R
BOOTHVILLE     PTCLDY    81  71  71 E10       29.98R
BELLE CHASSE   PTCLDY    76  71  85 NE3       29.98R
BOGALUSA*        N/A     72  68  87 CALM      30.01R
GALLIANO*      NOT AVBL
NEW ROADS*     FAIR      73  71  91 CALM      29.99R
GONZALES*      FAIR      75  74  99 CALM      29.99R
HAMMOND*       CLEAR     75  70  83 CALM      30.01R
HOUMA*         CLEAR     75  64  70 E3        29.99R
PORT FOURCHON* PTCLDY    81  72  74 E16       30.01R

$$

LAZ041-044-053-054-210400-
SOUTHWEST LOUISIANA

CITY           SKY/WX    TMP DP  RH WIND       PRES   REMARKS
LAKE CHARLES   CLEAR     78  69  73 E6        29.97R
LAFAYETTE      CLEAR     75  73  93 CALM      29.98R
PATTERSON      CLEAR     73  70  88 CALM      30.01R
SALT POINT       N/A     78  72  81 CALM      29.97R
NEW IBERIA     CLEAR     75  71  87 CALM      29.98R
CHENAULT AIRPK CLEAR     74  70  86 CALM      29.98R

$$

LAZ027-028-210400-
CENTRAL LOUISIANA

CITY           SKY/WX    TMP DP  RH WIND       PRES   REMARKS
FORT POLK      CLEAR     74  69  85 CALM      29.99R
ALEXANDRIA INT CLEAR     73  69  87 CALM      29.97R
ALEXANDRIA     CLEAR     73  70  90 CALM      29.99R

$$

LAZ001-002-210400-
NORTHWEST LOUISIANA

CITY           SKY/WX    TMP DP  RH WIND       PRES   REMARKS
SHREVEPORT     CLEAR     79  65  62 CALM      29.99R
BARKSDALE AFB  CLEAR     75  68  78 CALM      30.00R
DTN SHREVEPORT CLEAR     75  67  76 CALM      30.00R

$$

LAZ014-016-210400-
NORTHEAST LOUISIANA

CITY           SKY/WX    TMP DP  RH WIND       PRES   REMARKS
MONROE         CLOUDY    77  70  79 E3        30.01R
TALLULAH       CLEAR     72  69  90 CALM      30.00R

$$




USA.gov is the U.S. government's official web portal to all federal, state and local government web resources and services.